Location: Valley Falls
(35.0169°N, 81.9753°W)
Time: 07:49:48
(UTC+00:00)

X-37B - Pass Details

Date: 05 December 2022
Orbit: 277 x 277 km, 45.0° (Epoch: 01 November)

Event Time Altitude Azimuth Distance (km) Brightness Sun altitude
Rises 23:26:40 0° 228° (SW) 1,900 5.4 -14.2°
Reaches altitude 10° 23:28:36 10° 222° (SW) 1,092 3.8 -14.6°
Maximum altitude 23:30:58 49° 145° (SE) 363 0.3 -15.0°
Enters shadow 23:31:11 47° 123° (ESE) 375 0.2 -15.1°
